TIME,DELAY(SENSOR),PRES,OXYGEN,RAWTEMP,T(OPTODE),TCPHASE,FLUOR,BETA(BETA700),BETA(BETA412),BETA(BETA440),CDOM,C(CSC),ED(ED412.20),ED(ED444.00),ED(ED489.60),ED(ED554.30),LU(LU412.10),LU(LU443.90),LU(LU489.70),LU(LU554.70),COMP,TILTX,TILTY,CHECK
1353726479,5807,882.7500000000000000,30.8954601287841800,558.3521728515625000,4.5369529724121090,56.9295883178710940,56,99,100,78,83,15551,0,0,0,0,2147127296,2147775314,2147569517,2147570441,3501,3,13,33814
1353730075,5810,946.8400268554688000,38.8471984863281250,564.1652832031250000,4.3567328453063965,55.7236213684082000,56,100,100,78,82,15516,0,0,0,0,2147123995,2147771300,2147568393,2147568402,2677,3,13,40960
1353733675,5810,962.9699707031250000,41.0148315429687500,566.3856201171875000,4.2878270149230960,55.4270782470703100,54,99,99,78,82,15516,0,0,0,0,2147125010,2147777801,2147572754,2147569801,48,3,13,65459
1353737275,5810,991.9899902343750000,41.2585792541503900,567.7957763671875000,4.2440381050109860,55.4024009704589840,55,99,100,78,82,15517,0,0,0,0,2147124260,2147775954,2147568603,2147570368,3401,2,13,45727
1353740875,5812,997.9899902343750000,40.9854011535644500,568.0905761718750000,4.2348790168762210,55.4510002136230500,56,99,101,78,83,15517,0,0,0,0,2147124891,2147775341,2147575012,2147569188,3426,3,13,36647
1353744475,5810,1003.8200073242188000,41.3348693847656250,568.6278076171875000,4.2181949615478520,55.4026908874511700,55,97,101,82,83,15511,0,0,0,0,2147119753,2147774189,2147568658,2147567204,3126,2,13,59621
1353748075,5810,1005.5900268554688000,40.6546096801757800,568.1195068359375000,4.2339820861816410,55.4958114624023440,55,99,101,83,82,15515,0,0,0,0,2147122779,2147770221,2147575268,2147570715,101,3,13,14900
1353751675,5812,1009.9600219726562000,41.1279411315918000,568.8425292968750000,4.2115249633789060,55.4356193542480500,55,99,101,78,82,15518,0,0,0,0,2147125174,2147771355,2147569408,2147568018,95,3,13,57509
1353755275,5811,1014.4699707031250000,41.2173309326171900,568.7316284179688000,4.2149720191955570,55.4182090759277340,55,101,100,78,82,15516,0,0,0,0,2147121554,2147774418,2147573942,2147570678,65,3,13,13662
1353758875,5808,1009.1699829101562000,41.0358085632324200,568.8438720703125000,4.2114810943603520,55.4457397460937500,54,99,99,78,83,15514,0,0,0,0,2147124059,2147777234,2147568731,2147570834,3579,2,13,38330
1353762475,5812,1011.3900146484375000,40.8441390991210940,568.6577758789062000,4.2172641754150390,55.4727401733398440,55,97,99,77,82,15513,0,0,0,0,2147121115,2147774144,2147571474,2147570267,87,3,13,37543
1353766075,5807,1001.9500122070312000,41.4263000488281250,570.1273193359375000,4.1716041564941410,55.4021911621093750,55,100,100,78,82,15515,0,0,0,0,2147124370,2147773101,2147572598,2147569554,398,2,13,27566
1353769675,5808,1012.5599975585938000,41.6950683593750000,570.3986206054688000,4.1631741523742680,55.3708381652832000,55,98,101,78,83,15511,0,0,0,0,2147121718,2147776018,2147570194,2147566884,318,3,13,31090
1353773275,5809,1008.2100219726562000,41.5897293090820300,570.3762207031250000,4.1638698577880860,55.3868789672851560,55,97,101,78,82,15511,0,0,0,0,2147124681,2147772653,2147569298,2147569371,90,3,13,22042
1353776875,5809,1011.9000244140625000,41.9357185363769500,570.3267211914062000,4.1654071807861330,55.3336601257324200,54,98,100,80,83,15513,0,0,0,0,2147123108,2147773504,2147567798,2147570843,10,3,13,24323
1353780475,5809,1011.9500122070312000,41.5069084167480500,570.2639160156250000,4.1673598289489750,55.3966598510742200,56,106,100,77,82,15513,0,0,0,0,2147122998,2147772946,2147568630,2147568539,476,3,13,40553
1353784075,5811,1014.1699829101562000,41.5633888244628900,570.2907714843750000,4.1665248870849610,55.3847999572753900,55,98,99,77,81,15512,0,0,0,0,2147124918,2147771318,2147570742,2147566509,3439,3,13,24255
1353787675,5811,1015.3699951171875000,42.0425987243652340,570.3690185546875000,4.1640930175781250,55.3160591125488300,55,100,101,78,82,15512,0,0,0,0,2147124608,2147772617,2147566546,2147570413,201,3,13,9570
1353791275,5810,1010.6599731445312000,41.7638206481933600,570.3853759765625000,4.1635861396789550,55.3610115051269500,56,99,99,77,82,15514,0,0,0,0,2147122048,2147772992,2147566482,2147572955,3164,3,13,55391
1353794875,5810,1006.4699707031250000,41.9956207275390600,570.7227783203125000,4.1530990600585940,55.3267517089843750,55,98,100,78,82,15509,0,0,0,0,2147122130,2147774427,2147569956,2147568877,233,3,13,34752
1353798475,5810,1014.4699707031250000,42.2384185791015600,570.9586791992188000,4.1457629203796390,55.2933082580566400,54,99,100,78,82,15513,0,0,0,0,2147119314,2147772470,2147570130,2147571346,55,3,13,64804
1353802075,5808,1014.7800292968750000,41.4592018127441400,570.9215698242188000,4.1469168663024900,55.4105110168457000,55,100,100,77,82,15510,0,0,0,0,2147121353,2147774692,2147570075,2147573019,149,3,13,63627
1353805675,5811,1011.6400146484375000,41.7545204162597660,570.3156127929688000,4.1657519340515140,55.3610496520996100,53,99,101,79,82,15513,0,0,0,0,2147123913,2147774189,2147572452,2147569627,3264,3,13,53662
1353809275,5811,1014.4299926757812000,41.4513206481933600,570.8322143554688000,4.1496977806091310,55.4055900573730500,54,99,101,78,82,15513,0,0,0,0,2147121984,2147770825,2147572297,2147570514,3489,3,13,31100
1353812875,5808,1014.5700073242188000,41.6145896911621100,570.9608154296875000,4.1456990242004395,55.3874397277832000,55,100,101,76,83,15510,0,0,0,0,2147120649,2147769179,2147566317,2147568923,3568,3,13,61370
1353816475,5809,1023.5100097656250000,42.3160591125488300,570.9683227539062000,4.1454682350158690,55.2858009338378900,55,97,101,77,82,15508,0,0,0,0,2147119542,2147772361,2147570066,2147566509,406,3,13,43607
1353820075,5809,1015.5700073242188000,41.4660606384277340,570.2086791992188000,4.1690750122070310,55.4027214050293000,54,98,100,77,82,15509,0,0,0,0,2147121389,2147773056,2147573924,2147570706,141,3,13,33951
1353823675,5810,1012.1699829101562000,41.6381912231445300,570.4484252929688000,4.1616249084472660,55.3786010742187500,55,99,100,78,83,15509,0,0,0,0,2147118089,2147770660,2147570194,2147570907,3582,3,13,25146
1353827275,5811,1024.7900390625000000,41.8815994262695300,570.1860961914062000,4.1697769165039060,55.3366203308105500,55,99,100,80,82,15510,0,0,0,0,2147120210,2147771328,2147567936,2147568649,165,3,13,55185
1353830875,5810,1024.2500000000000000,40.9008598327636700,568.6218872070312000,4.2183780670166020,55.4686698913574200,55,103,100,78,82,15507,0,0,0,0,2147121883,2147772754,2147574518,2147568484,52,3,13,18648
1353834475,5810,1021.7299804687500000,41.2055892944335940,569.0364990234375000,4.2054982185363770,55.4288597106933600,54,102,100,76,83,15506,0,0,0,0,2147121910,2147776877,2147574848,2147566180,3418,3,13,55424
1353838075,5810,1016.4799804687500000,41.3872985839843750,570.2960815429688000,4.1663570404052730,55.4141502380371100,55,98,101,77,82,15505,0,0,0,0,2147124214,2147777755,2147568192,2147568914,3122,3,13,17407
1353841675,5809,1016.1099853515625000,41.2014694213867200,570.9752197265625000,4.1452522277832030,55.4457893371582000,54,98,101,79,82,15502,0,0,0,0,2147122614,2147773714,2147574016,2147568539,149,3,13,42463
1353845275,5810,1017.2299804687500000,42.0499610900878900,570.8291015625000000,4.1497941017150880,55.3255805969238300,56,99,100,77,81,15500,0,0,0,0,2147121764,2147772150,2147573796,2147568768,152,3,13,41454
1353848875,5811,1022.5000000000000000,41.4808807373046900,570.4616699218750000,4.1612129211425780,55.4037590026855500,55,100,100,78,82,15501,0,0,0,0,2147122221,2147774738,2147571574,2147566308,8,3,13,24363
1353852475,5810,1025.2700195312500000,41.3372001647949200,570.0059814453125000,4.1753730773925780,55.4162406921386700,55,98,102,78,83,15502,0,0,0,0,2147122377,2147774125,2147571812,2147569060,350,3,13,5117
1353856075,5808,1012.3499755859375000,41.6212806701660160,571.4041137695312000,4.1319179534912110,55.3930587768554700,54,98,101,77,82,15500,0,0,0,0,2147121746,2147772681,2147569956,2147567405,216,3,13,51596
1353859675,5809,1019.3900146484375000,42.6723289489746100,572.7332763671875000,4.0905900001525880,55.2527885437011700,55,99,101,78,82,15501,0,0,0,0,2147124745,2147771702,2147569956,2147570916,171,3,13,32482
1353863275,5811,1019.6199951171875000,41.9017791748046900,571.5753784179688000,4.1265931129455570,55.3540687561035160,54,98,100,78,82,15496,0,0,0,0,2147122843,2147768740,2147571830,2147571776,19,3,13,45402
1353866875,5809,1016.4699707031250000,42.1799697875976560,572.0545043945312000,4.1116981506347660,55.3167114257812500,55,99,101,77,82,15459,0,0,0,0,2147120978,2147771849,2147571995,2147570907,2954,2,13,33580
1353870475,5808,1023.1500244140625000,42.3031501770019500,570.8765869140625000,4.1483168601989750,55.2823181152343750,54,99,100,79,81,15453,0,0,0,0,2147120960,2147774226,2147569947,2147569097,3588,3,13,3310
1353871557,5810,1023.8800048828125000,41.8937988281250000,570.3397827148438000,4.1649990081787110,55.3410606384277340,55,97,101,79,83,15457,0,0,0,0,2147124946,2147775222,2147573083,2147569398,403,3,13,56183
